Temperature
20 20 19 19 19 19 18 19 19 19 19 19 19 18 18 18 19 19 19 19 19 19 19 19 19 19 18 18 18 18 18 18 18 18 18 18 17 17 17 17 16 16 16
20 20 20 19 19 19 19 19 19 19 19 18 18 18 18 18 19 19 19 19 19 19 19 19 19 19 19 18 18 18 18 18 18 18 18 18 17 17 17 17 17 16 16
19 19 19 19 19 19 19 19 19 19 18 18 18 18 18 18 19 19 19 19 19 19 19 19 19 19 19 19 18 18 19 19 18 18 18 18 18 17 17 17 17 17 16
19 19 19 19 19 19 19 19 19 19 18 18 18 18 18 18 18 19 19 19 19 19 19 19 19 19 19 18 18 18 18 19 19 18 18 18 18 17 17 17 17 17 17
19 19 19 19 19 18 18 19 19 18 18 18 18 18 18 18 19 19 19 19 19 19 19 19 19 19 19 18 18 18 18 18 18 18 18 18 18 17 17 17 17 17 17
19 19 19 19 18 18 18 18 19 19 18 18 18 18 18 18 19 19 19 19 19 19 19 19 19 19 19 19 19 18 18 18 18 18 18 18 18 18 17 17 17 17 17
19 19 19 19 18 18 18 19 19 18 18 18 18 18 18 18 18 19 19 19 19 19 19 20 19 19 19 19 19 19 18 18 18 18 18 18 18 18 18 17 17 17 17
18 18 18 18 18 18 18 18 18 18 18 18 18 18 17 18 19 19 19 19 19 19 19 20 20 19 19 19 19 19 19 18 18 18 18 18 18 18 18 17 17 17 17
18 17 17 17 17 17 17 18 18 18 18 18 18 17 16 16 17 18 18 18 18 18 19 19 19 19 19 19 19 19 19 18 18 18 18 18 18 18 18 17 17 17 17
17 17 17 17 17 17 17 17 17 17 17 17 17 17 16 16 16 16 17 17 17 18 18 18 18 18 18 18 18 18 18 18 18 18 17 17 17 17 17 17 17 17 17
16 16 16 16 16 16 16 16 16 16 16 16 16 16 16 15 15 15 15 16 17 17 17 17 18 18 18 18 18 18 18 18 18 18 17 17 17 17 17 17 17 17 16
16 16 16 16 16 16 16 16 16 16 16 16 15 15 15 15 15 15 15 15 16 16 16 17 17 17 17 17 17 17 17 17 17 17 17 17 17 17 17 17 17 17 16
15 15 15 15 15 16 16 16 15 16 16 15 15 15 15 14 14 14 14 14 15 15 16 16 16 16 16 16 16 16 17 17 17 17 17 17 17 17 17 17 17 16 16
14 14 14 15 15 15 15 15 15 15 15 15 14 14 14 14 14 14 14 14 14 15 15 15 15 15 15 15 16 16 16 16 16 16 16 16 16 16 16 16 16 16 16
13 13 14 14 14 14 15 15 14 14 14 14 14 13 13 13 13 13 14 14 14 14 14 14 14 14 14 15 15 15 16 16 16 16 16 16 16 16 15 15 15 16 16
12 13 13 13 14 14 14 14 14 14 14 13 13 13 13 13 13 13 14 14 14 14 14 14 14 14 14 14 15 15 15 15 15 15 15 15 15 15 15 15 15 15 15
12 12 12 13 13 13 14 14 14 13 13 13 13 13 13 13 13 13 14 14 14 14 14 13 13 13 14 14 14 14 14 14 15 15 15 14 14 14 14 14 14 14 14
12 12 12 12 13 13 13 13 13 13 13 13 12 12 13 13 13 13 14 14 14 14 14 13 13 13 13 13 13 13 14 14 14 14 14 14 13 13 13 13 13 13 13
11 11 12 12 12 12 12 13 12 12 12 12 12 12 12 13 13 13 14 14 14 13 13 13 13 13 13 13 13 13 13 13 13 13 13 13 13 12 12 12 12 12 12
11 11 11 12 12 12 12 12 12 12 12 12 12 12 12 13 13 13 14 14 13 13 13 13 13 13 12 13 13 13 13 13 12 12 12 12 12 12 12 12 12 12 12
11 11 11 11 11 11 11 11 11 11 11 11 12 12 12 13 13 13 13 13 13 13 13 13 12 12 12 12 12 12 12 12 12 12 12 12 12 12 12 12 12 12 12
11 11 11 11 11 11 11 11 11 11 11 11 12 12 12 12 12 12 12 12 13 13 12 12 12 11 11 11 11 11 12 12 11 11 12 11 12 11 11 11 11 11 11
11 11 11 11 11 11 11 11 11 11 11 11 12 12 12 12 12 12 12 12 12 12 12 11 11 11 11 11 11 11 11 11 11 11 11 11 11 11 11 11 11 11 11
11 11 11 11 11 11 11 11 11 11 11 11 11 11 11 11 11 11 12 12 11 11 11 11 11 11 10 10 10 10 10 10 10 10 11 11 11 11 11 10 10 10 10
11 11 11 11 11 11 11 11 11 11 11 11 11 11 11 11 11 11 11 11 11 11 11 11 11 10 10 10 10 10 10 10 10 10 10 10 10 11 11 10 10 10 10
11 11 11 11 11 11 11 11 11 11 11 11 11 11 11 11 11 11 11 11 11 11 11 11 10 10 10 10 10 10 10 10 9 9 9 9 9 10 10 10 9 9 10
Wind_Speed
10 9 8 9 11 12 11 9 9 9 10 11 13 12 12 13 15 16 15 21 24 24 23 24 26 27 26 25 24 24 23 22 22 23 23 24 24 24 25 25 25 24 24
10 11 11 9 8 11 12 10 12 12 11 11 12 12 11 12 14 16 17 18 22 24 24 25 27 27 26 26 25 25 24 23 23 23 24 24 24 24 25 25 25 24 24
12 11 10 10 9 11 12 9 10 9 10 10 11 13 11 9 9 11 13 14 16 21 25 26 27 27 27 26 26 26 25 24 24 24 24 24 25 25 25 25 25 24 24
14 9 10 10 8 7 7 8 7 7 8 8 8 8 7 6 8 8 9 11 13 15 19 26 27 28 28 28 27 27 27 26 25 25 25 25 25 25 25 25 24 24 24
10 8 9 9 8 7 8 8 6 5 6 7 6 6 6 6 7 9 9 9 11 13 15 19 26 29 29 30 29 28 28 27 27 26 26 25 25 25 24 24 24 24 24
10 7 8 10 9 8 8 6 7 6 5 6 7 7 6 7 7 8 10 10 9 13 15 16 17 20 28 30 29 29 29 28 27 27 26 26 26 25 24 24 24 24 24
9 8 8 9 9 9 10 10 7 8 7 5 4 5 7 9 11 11 10 9 10 10 12 13 13 14 14 22 26 27 28 29 28 27 27 26 26 25 24 24 24 24 24
8 9 8 8 9 9 10 10 8 6 6 6 5 4 5 5 7 11 9 9 9 8 9 9 9 10 11 11 15 23 27 29 30 28 27 27 26 26 25 25 24 24 25
7 8 9 9 8 8 9 10 10 9 8 7 8 6 5 7 4 4 6 5 3 2 3 5 6 5 7 8 10 15 21 25 28 30 28 27 26 26 26 26 25 25 25
9 9 9 9 9 8 9 10 9 8 8 8 6 8 7 5 5 4 3 3 3 2 2 4 3 1 0 2 5 8 11 15 19 24 26 26 26 25 26 26 26 26 26
9 9 9 9 9 8 9 10 9 8 8 8 7 5 7 7 7 6 5 3 2 2 3 3 1 1 3 4 3 2 3 6 9 11 15 19 22 25 25 26 27 27 27
8 9 9 9 9 8 9 10 9 9 8 8 6 6 5 4 5 5 6 4 3 3 2 1 1 3 3 4 4 4 2 1 3 5 8 10 13 16 20 22 24 25 26
9 10 10 8 8 8 9 8 8 7 7 6 6 5 5 4 3 3 3 2 1 1 2 3 3 2 3 3 2 2 2 1 1 2 3 4 4 5 6 9 12 15 18
9 11 11 10 9 8 7 6 5 5 5 5 5 4 3 3 3 3 3 3 1 2 3 3 3 4 2 2 3 3 2 2 2 2 1 1 1 1 2 3 4 7 8
9 10 10 9 8 6 6 6 5 5 5 4 4 4 3 2 2 2 2 2 3 2 2 3 3 3 2 2 5 4 4 5 3 2 2 2 1 1 0 1 3 5 6
8 10 10 9 7 5 3 4 4 5 5 4 3 3 2 1 1 1 2 2 3 3 3 2 2 3 4 5 7 7 7 8 7 5 3 2 2 1 1 3 4 6 8
8 9 9 9 7 5 2 1 3 5 5 4 3 4 4 3 2 1 2 2 3 4 6 4 4 5 7 7 6 6 8 7 7 10 8 5 3 3 3 4 6 8 9
7 8 8 8 7 5 3 2 4 5 6 6 5 5 4 5 5 4 4 5 5 6 7 7 5 6 7 5 6 6 6 7 7 11 10 9 6 4 4 5 7 9 10
6 7 7 8 8 7 6 7 8 8 8 8 7 7 6 8 8 7 8 8 8 10 8 8 5 5 5 4 5 5 6 5 6 9 10 9 8 6 5 5 6 8 10
4 6 6 8 8 9 10 10 11 11 11 10 8 7 7 8 8 9 10 11 11 11 9 8 6 5 4 3 4 4 5 4 5 6 7 8 8 8 8 9 9 10 11
2 3 5 7 8 8 9 10 10 12 11 11 10 9 10 12 12 10 10 9 10 9 8 7 5 5 5 5 4 4 4 4 3 3 4 4 4 4 4 8 10 13 14
0 2 3 5 7 6 9 12 10 9 9 10 9 8 9 10 13 15 15 13 11 9 8 6 4 5 4 4 4 4 4 4 4 4 3 4 3 3 4 4 11 14 15
3 2 2 5 6 6 10 12 12 9 9 8 8 8 8 9 9 9 12 14 13 13 9 6 5 4 3 3 4 5 4 3 2 5 4 4 3 3 4 5 11 14 15
5 4 4 5 5 6 11 13 14 10 9 8 8 8 9 8 7 9 9 9 9 8 7 5 4 3 2 2 2 1 1 2 3 4 4 4 4 4 4 4 9 13 15
5 5 5 6 6 6 11 14 13 8 8 8 7 7 9 8 11 13 11 9 9 7 8 10 8 7 7 8 6 5 6 5 4 4 4 4 4 4 4 4 6 12 14
7 7 7 6 7 6 10 14 13 8 8 6 6 7 10 10 12 12 9 9 9 6 7 9 9 9 8 9 10 6 3 3 2 3 5 5 5 5 5 4 4 6 9
Wind_Direction
228 231 233 233 231 226 223 223 226 231 235 239 242 242 243 243 242 240 242 245 242 239 234 227 224 225 227 228 228 229 230 230 231 230 228 228 228 227 225 223 221 219 217
226 230 234 232 227 223 221 219 221 227 232 235 239 240 241 243 240 239 240 245 241 234 228 225 224 226 229 230 230 231 231 232 232 230 229 229 228 228 227 225 223 220 217
232 232 236 237 231 222 217 219 222 226 231 233 237 238 239 238 237 237 241 241 241 236 229 227 228 229 230 232 232 231 231 231 231 230 229 228 228 227 226 226 224 221 217
239 238 241 245 240 226 216 214 215 217 225 226 231 239 243 245 250 251 250 245 239 239 234 232 232 233 234 235 236 234 231 230 229 228 228 227 227 226 224 224 223 220 218
260 239 241 241 236 230 225 222 215 210 224 230 235 244 252 254 256 262 260 254 245 239 237 234 233 234 237 240 239 238 235 232 229 227 226 226 226 225 223 222 221 220 218
261 244 239 235 227 226 229 224 219 213 217 221 240 248 246 249 251 251 254 258 254 250 245 240 237 239 238 240 240 240 239 237 233 229 225 224 225 223 222 222 221 220 218
265 255 250 241 230 228 229 224 219 223 228 211 221 259 260 248 249 251 250 255 259 259 253 243 237 236 240 239 236 235 238 240 237 231 226 223 222 221 220 221 220 219 218
274 274 257 250 241 235 233 226 218 219 226 202 199 227 273 285 253 246 241 242 252 264 266 256 239 232 237 238 234 232 235 237 237 233 227 222 220 218 218 219 219 218 217
285 280 270 260 251 237 236 234 224 221 232 226 206 203 214 239 269 268 237 227 241 291 301 293 262 241 235 231 231 235 238 239 238 237 232 225 219 216 216 217 218 218 217
287 284 278 268 255 242 238 240 234 226 226 235 226 219 221 211 224 266 279 246 248 260 308 300 289 293 156 175 205 224 236 239 242 241 240 234 225 218 216 217 220 219 218
290 286 279 271 259 247 239 237 233 224 222 228 227 220 228 230 224 228 253 263 282 277 279 278 284 98 95 106 109 130 210 237 243 249 254 249 239 227 219 220 224 225 222
299 293 286 274 262 251 241 235 228 221 220 223 223 217 211 211 213 218 227 232 250 265 291 358 100 117 116 110 106 111 119 217 262 257 259 257 248 236 227 225 228 230 229
309 302 295 281 270 255 243 229 217 213 208 209 212 211 207 210 200 197 196 206 218 309 18 30 38 86 101 93 81 95 68 17 322 273 255 255 248 232 227 227 231 236 237
309 305 301 289 277 262 243 217 202 196 190 193 194 185 183 190 190 192 188 170 128 50 44 28 19 35 51 66 51 56 26 7 12 14 7 38 89 145 196 230 241 247 251
318 319 315 306 294 273 238 203 192 183 173 177 176 173 172 166 177 177 177 163 142 128 78 20 31 11 23 54 38 34 21 11 8 12 18 32 46 55 55 262 262 265 265
324 328 330 326 319 305 255 198 176 169 164 172 172 163 141 122 140 178 180 171 162 147 121 70 43 20 26 40 35 34 29 25 23 22 13 23 37 24 333 299 286 277 272
324 330 331 333 331 328 333 163 155 152 155 145 132 125 112 103 103 104 118 120 127 123 113 70 37 29 39 34 23 29 40 41 34 33 32 31 29 12 335 312 298 290 284
325 332 337 344 349 356 21 75 110 120 127 121 111 105 106 103 91 86 89 86 86 89 101 88 43 30 33 29 31 34 32 41 41 38 40 40 36 19 350 323 307 296 289
337 347 1 8 12 26 48 68 82 86 93 94 95 98 97 95 86 80 82 85 87 89 88 90 59 28 24 20 24 30 36 29 37 39 41 38 35 32 19 356 333 317 303
349 359 13 21 28 45 60 70 79 81 80 78 80 82 81 85 84 82 85 90 96 92 85 81 64 33 17 352 25 20 19 18 22 23 25 26 26 27 21 11 357 342 327
352 4 26 41 42 56 73 81 84 88 86 81 72 67 68 73 73 78 89 91 95 94 86 79 65 45 24 17 5 355 18 358 359 7 357 358 0 0 357 358 356 347 337
251 48 54 59 58 73 93 96 100 95 91 85 76 66 62 59 69 71 76 78 88 97 95 86 72 61 32 13 5 15 21 29 3 340 351 327 339 338 332 342 347 347 342
184 142 102 86 80 92 108 106 104 101 92 85 79 74 74 66 68 71 67 63 62 72 91 107 92 78 58 14 29 27 22 44 7 323 354 325 324 316 309 325 341 345 342
176 162 141 121 103 105 115 110 103 96 90 84 84 88 84 65 69 83 74 60 49 45 56 79 113 121 118 101 85 79 2 23 340 336 24 354 322 310 305 314 330 339 342
168 160 154 141 117 104 118 120 110 101 94 82 77 80 89 80 76 82 79 71 54 29 44 69 84 88 73 65 66 51 36 42 9 327 357 8 320 317 316 316 323 335 337
166 156 154 152 133 120 122 127 120 116 107 97 78 69 78 88 82 81 83 82 71 46 53 60 52 42 40 41 47 58 72 71 39 344 331 358 336 345 337 321 325 334 338
Height
1530 1530 1529 1528 1528 1528 1528 1528 1529 1529 1528 1528 1528 1528 1528 1528 1528 1528 1528 1528 1528 1529 1529 1529 1529 1530 1531 1531 1532 1532 1532 1533 1534 1535 1536 1538 1539 1540 1542 1543 1544 1546 1547
1527 1527 1526 1525 1524 1524 1524 1524 1524 1525 1525 1525 1524 1525 1524 1524 1523 1523 1523 1523 1524 1524 1524 1524 1524 1525 1526 1527 1527 1527 1528 1529 1529 1530 1531 1533 1534 1536 1537 1539 1540 1542 1543
1523 1522 1522 1521 1521 1520 1519 1519 1520 1520 1519 1519 1519 1520 1520 1520 1519 1519 1519 1518 1518 1518 1519 1519 1520 1520 1520 1521 1522 1523 1523 1524 1525 1526 1526 1528 1529 1531 1532 1534 1536 1537 1539
1517 1516 1515 1515 1515 1516 1515 1514 1514 1514 1514 1514 1514 1515 1515 1515 1515 1515 1514 1514 1513 1513 1513 1513 1514 1515 1515 1516 1516 1517 1518 1519 1520 1521 1522 1523 1524 1526 1528 1529 1531 1533 1534
1512 1511 1509 1508 1508 1509 1508 1508 1508 1508 1509 1509 1509 1509 1509 1509 1509 1509 1508 1508 1508 1507 1507 1507 1508 1508 1509 1510 1510 1511 1512 1513 1514 1515 1516 1518 1519 1521 1523 1525 1526 1528 1530
1507 1505 1503 1502 1502 1502 1502 1502 1502 1502 1502 1502 1503 1502 1502 1502 1502 1502 1502 1502 1501 1501 1501 1501 1501 1502 1502 1503 1504 1505 1506 1507 1508 1510 1511 1512 1514 1516 1518 1520 1522 1524 1525
1500 1498 1497 1496 1496 1495 1495 1495 1495 1495 1495 1496 1496 1495 1494 1495 1494 1494 1494 1494 1494 1494 1494 1493 1494 1494 1495 1496 1497 1498 1498 1500 1502 1504 1505 1507 1508 1510 1513 1515 1517 1519 1521
1492 1491 1489 1488 1488 1487 1487 1487 1488 1487 1487 1488 1489 1488 1487 1486 1484 1485 1486 1486 1487 1486 1485 1485 1485 1487 1488 1489 1490 1492 1492 1494 1496 1498 1499 1501 1503 1505 1507 1509 1512 1514 1515
1484 1483 1481 1480 1479 1479 1479 1479 1479 1479 1479 1480 1480 1482 1480 1478 1478 1477 1478 1479 1479 1479 1478 1477 1478 1479 1481 1482 1483 1485 1486 1487 1489 1491 1493 1495 1497 1499 1501 1504 1506 1508 1510
1477 1475 1474 1472 1471 1471 1470 1470 1471 1471 1471 1471 1472 1472 1473 1473 1473 1471 1472 1472 1473 1472 1472 1471 1472 1473 1474 1475 1477 1479 1480 1481 1482 1484 1486 1488 1491 1493 1495 1498 1500 1502 1504
1469 1467 1465 1464 1463 1462 1462 1462 1462 1462 1463 1463 1463 1464 1464 1465 1465 1465 1464 1465 1466 1467 1466 1466 1466 1467 1469 1471 1472 1474 1475 1476 1476 1477 1478 1481 1484 1487 1489 1491 1493 1496 1498
1461 1459 1457 1456 1454 1453 1453 1453 1454 1454 1454 1455 1455 1455 1456 1457 1457 1457 1457 1458 1460 1462 1462 1462 1463 1464 1465 1466 1467 1469 1470 1470 1471 1472 1473 1475 1477 1479 1482 1484 1487 1489 1491
1455 1452 1450 1447 1446 1445 1445 1445 1445 1446 1447 1447 1447 1448 1449 1449 1451 1451 1452 1453 1455 1457 1458 1459 1461 1462 1463 1464 1464 1465 1466 1466 1467 1468 1469 1470 1471 1473 1476 1478 1480 1482 1484
1451 1447 1444 1441 1439 1438 1437 1438 1438 1439 1440 1441 1441 1442 1443 1444 1445 1446 1447 1449 1451 1454 1456 1458 1460 1461 1462 1463 1463 1463 1464 1464 1464 1464 1465 1465 1466 1468 1470 1472 1474 1476 1477
1448 1444 1440 1436 1434 1432 1432 1432 1432 1434 1435 1436 1437 1438 1439 1440 1441 1442 1444 1446 1449 1452 1455 1458 1460 1461 1461 1462 1462 1462 1462 1461 1461 1461 1462 1462 1462 1463 1465 1467 1468 1470 1471
1446 1442 1437 1434 1430 1428 1427 1427 1428 1429 1431 1432 1434 1435 1437 1439 1440 1442 1444 1446 1449 1452 1455 1458 1459 1460 1460 1461 1461 1460 1459 1459 1459 1459 1459 1459 1459 1460 1461 1462 1463 1464 1464
1446 1441 1436 1432 1429 1426 1425 1424 1425 1426 1428 1430 1433 1435 1437 1439 1441 1443 1445 1447 1450 1452 1454 1458 1459 1460 1460 1460 1460 1459 1458 1457 1457 1457 1457 1457 1457 1457 1458 1458 1459 1459 1459
1446 1441 1437 1432 1429 1426 1424 1424 1424 1425 1427 1430 1433 1435 1438 1440 1442 1444 1446 1448 1451 1453 1455 1457 1459 1460 1460 1460 1459 1458 1458 1457 1456 1455 1455 1455 1455 1455 1455 1455 1455 1455 1454
1446 1442 1438 1433 1430 1427 1426 1425 1425 1427 1429 1432 1435 1438 1440 1442 1444 1446 1448 1450 1452 1454 1456 1458 1460 1461 1461 1461 1460 1459 1458 1457 1456 1455 1454 1454 1453 1453 1453 1452 1451 1450 1449
1447 1444 1440 1436 1432 1430 1428 1428 1429 1430 1433 1436 1439 1442 1444 1446 1447 1448 1450 1452 1454 1456 1458 1460 1461 1462 1462 1461 1461 1460 1459 1458 1457 1456 1455 1454 1453 1452 1451 1449 1448 1446 1444
1449 1446 1443 1440 1437 1435 1434 1433 1434 1436 1438 1441 1444 1446 1448 1450 1451 1452 1454 1456 1457 1458 1460 1461 1462 1463 1463 1462 1462 1461 1460 1460 1459 1458 1456 1455 1453 1451 1449 1447 1445 1442 1439
1450 1448 1446 1443 1442 1441 1440 1440 1441 1443 1445 1447 1449 1451 1453 1454 1455 1456 1458 1459 1460 1461 1462 1463 1464 1464 1465 1464 1464 1463 1462 1461 1459 1459 1457 1455 1453 1450 1448 1445 1442 1439 1436
1450 1449 1448 1447 1446 1446 1446 1447 1448 1449 1451 1453 1455 1456 1457 1458 1459 1460 1461 1462 1463 1464 1465 1466 1466 1467 1467 1466 1466 1464 1463 1462 1461 1459 1457 1454 1452 1449 1447 1444 1441 1438 1434
1450 1450 1450 1450 1450 1450 1451 1452 1453 1454 1456 1457 1458 1460 1460 1461 1462 1463 1463 1464 1465 1466 1467 1468 1468 1469 1469 1468 1467 1466 1465 1463 1462 1460 1457 1454 1451 1449 1447 1445 1441 1437 1433
1449 1450 1451 1451 1452 1453 1454 1455 1456 1457 1458 1460 1461 1462 1463 1463 1464 1464 1465 1466 1467 1468 1469 1470 1470 1470 1470 1469 1468 1467 1465 1463 1462 1461 1458 1456 1452 1449 1447 1445 1441 1437 1432
1448 1449 1451 1452 1453 1455 1456 1458 1459 1460 1461 1462 1463 1464 1464 1464 1465 1466 1467 1467 1468 1470 1471 1471 1472 1472 1471 1470 1469 1468 1466 1465 1463 1462 1460 1457 1454 1451 1448 1446 1442 1438 1433